Location: Huberhof
(49.2050°N, 7.4980°E)
Time: 00:57:47
(UTC+00:00)

H-2A R/B - Pass Details

Date: 29 October 2020
Orbit: 733 x 837 km, 98.2° (Epoch: 26 November)

Event Time Altitude Azimuth Distance (km) Brightness Sun altitude
Exits shadow 19:37:06 - 203° (SSW) 3,365 5.4 -33.5°
Rises 19:37:07 0° 203° (SSW) 3,358 5.4 -33.5°
Reaches altitude 10° 19:39:56 10° 217° (SW) 2,438 4.7 -34.0°
Maximum altitude 19:44:13 23° 269° (W) 1,695 4.3 -34.6°
Drops below altitude 10° 19:48:32 10° 322° (NW) 2,461 5.2 -35.3°
Sets 19:51:24 0° 336° (NNW) 3,396 5.9 -35.7°
